owner,sensor,date,latitude,longitude,vertical_datum,direction_of_sea_water_velocity,sea_water_speed,upward_sea_water_velocity,qcFlag 
TABS,ioos:station:wmo:42049:1,2013-04-01T00:00:00Z,28.3507,-96.0058,2.0,285.7068416,15.81033839,-99999.0,'11111222,11111222,99999999' 
TABS,ioos:station:wmo:42049:1,2013-04-01T00:30:00Z,28.3507,-96.0058,2.0,257.2830347,20.85146757,-99999.0,'11111222,11111222,99999999' 
TABS,ioos:station:wmo:42049:1,2013-04-01T01:00:00Z,28.3507,-96.0058,2.0,261.0961247,23.26027515,-99999.0,'11111222,11111222,99999999' 
TABS,ioos:station:wmo:42049:1,2013-04-01T01:30:00Z,28.3507,-96.0058,2.0,258.438967,25.09918325,-99999.0,'11111222,11111222,99999999' 
TABS,ioos:station:wmo:42049:1,2013-04-01T02:00:00Z,28.3507,-96.0058,2.0,262.1618964,26.32592828,-99999.0,'11111222,11111222,99999999' 
TABS,ioos:station:wmo:42049:1,2013-04-01T02:30:00Z,28.3507,-96.0058,2.0,266.264896,26.40607695,-99999.0,'11111222,11111222,99999999' 
TABS,ioos:station:wmo:42049:1,2013-04-01T03:00:00Z,28.3507,-96.0058,2.0,266.8365111,28.45334778,-99999.0,'11111222,11111222,99999999' 
TABS,ioos:station:wmo:42049:1,2013-04-01T03:30:00Z,28.3507,-96.0058,2.0,266.8438451,25.06801348,-99999.0,'11111222,11111222,99999999' 
TABS,ioos:station:wmo:42049:1,2013-04-01T04:00:00Z,28.3507,-96.0058,2.0,284.213299,25.17046682,-99999.0,'11111222,11111222,99999999' 
TABS,ioos:station:wmo:42049:1,2013-04-01T04:30:00Z,28.3507,-96.0058,2.0,289.8567289,26.26130994,-99999.0,'11111222,11111222,99999999' 
TABS,ioos:station:wmo:42049:1,2013-04-01T05:00:00Z,28.3507,-96.0058,2.0,294.933097,29.20148113,-99999.0,'11111222,11111222,99999999' 
TABS,ioos:station:wmo:42049:1,2013-04-01T05:30:00Z,28.3507,-96.0058,2.0,296.2826735,28.09430013,-99999.0,'11111222,11111222,99999999' 
TABS,ioos:station:wmo:42049:1,2013-04-01T06:00:00Z,28.3507,-96.0058,2.0,296.7041401,24.01096833,-99999.0,'11111222,11111222,99999999' 
TABS,ioos:station:wmo:42049:1,2013-04-01T06:30:00Z,28.3507,-96.0058,2.0,300.2230813,26.91895429,-99999.0,'11111222,11111222,99999999' 
TABS,ioos:station:wmo:42049:1,2013-04-01T07:00:00Z,28.3507,-96.0058,2.0,303.6778034,25.21112453,-99999.0,'11111222,11111222,99999999' 
TABS,ioos:station:wmo:42049:1,2013-04-01T07:30:00Z,28.3507,-96.0058,2.0,300.6593704,19.66945093,-99999.0,'11111222,11111222,99999999' 
TABS,ioos:station:wmo:42049:1,2013-04-01T08:00:00Z,28.3507,-96.0058,2.0,297.751297,14.0455153,-99999.0,'11111222,11111222,99999999' 
TABS,ioos:station:wmo:42049:1,2013-04-01T08:30:00Z,28.3507,-96.0058,2.0,287.2827577,13.83460155,-99999.0,'11111222,11111222,99999999' 
TABS,ioos:station:wmo:42049:1,2013-04-01T09:00:00Z,28.3507,-96.0058,2.0,292.8402335,13.42240664,-99999.0,'11111222,11111222,99999999' 
TABS,ioos:station:wmo:42049:1,2013-04-01T09:30:00Z,28.3507,-96.0058,2.0,296.1721296,12.37916395,-99999.0,'11111222,11111222,99999999' 
TABS,ioos:station:wmo:42049:1,2013-04-01T10:00:00Z,28.3507,-96.0058,2.0,295.5781524,8.824834276,-99999.0,'11133222,11111222,99999999' 
TABS,ioos:station:wmo:42049:1,2013-04-01T10:30:00Z,28.3507,-96.0058,2.0,285.1888424,9.045982534,-99999.0,'11133222,11111222,99999999' 
TABS,ioos:station:wmo:42049:1,2013-04-01T11:00:00Z,28.3507,-96.0058,2.0,261.8369352,7.465634601,-99999.0,'11133222,11111222,99999999' 
TABS,ioos:station:wmo:42049:1,2013-04-01T11:30:00Z,28.3507,-96.0058,2.0,252.9214682,10.28344787,-99999.0,'11111222,11111222,99999999' 
TABS,ioos:station:wmo:42049:1,2013-04-01T12:00:00Z,28.3507,-96.0058,2.0,245.2083931,12.42507545,-99999.0,'11111222,11111222,99999999' 
TABS,ioos:station:wmo:42049:1,2013-04-01T12:30:00Z,28.3507,-96.0058,2.0,230.5653768,13.63365322,-99999.0,'11111222,11111222,99999999' 
TABS,ioos:station:wmo:42049:1,2013-04-01T13:00:00Z,28.3507,-96.0058,2.0,240.19591867641,14.405401764616,-99999.0,'1111122,1111122,1199999999' 
TABS,ioos:station:wmo:42049:1,2013-04-01T13:30:00Z,28.3507,-96.0058,2.0,230.1148251634,19.35279308007,-99999.0,'1111122,1111122,1199999999' 
TABS,ioos:station:wmo:42049:1,2013-04-01T14:00:00Z,28.3507,-96.0058,2.0,226.15506986473,23.501933962974,-99999.0,'1111122,1111122,1199999999' 
TABS,ioos:station:wmo:42049:1,2013-04-01T14:30:00Z,28.3507,-96.0058,2.0,230.81933537141,28.174910825059,-99999.0,'1111122,1111122,1199999999' 
TABS,ioos:station:wmo:42049:1,2013-04-01T15:00:00Z,28.3507,-96.0058,2.0,229.22673254623,32.523445389442,-99999.0,'1111122,1111122,1199999999' 
TABS,ioos:station:wmo:42049:1,2013-04-01T15:30:00Z,28.3507,-96.0058,2.0,236.35010671365,43.510694087776,-99999.0,'1111122,1111122,1199999999' 
TABS,ioos:station:wmo:42049:1,2013-04-01T16:00:00Z,28.3507,-96.0058,2.0,243.80699411013,44.767024694523,-99999.0,'1111122,1111122,1199999999' 
TABS,ioos:station:wmo:42049:1,2013-04-01T16:30:00Z,28.3507,-96.0058,2.0,241.22949667343,44.857446427544,-99999.0,'1111122,1111122,1199999999' 
TABS,ioos:station:wmo:42049:1,2013-04-01T17:00:00Z,28.3507,-96.0058,2.0,242.25063275762,52.362009128757,-99999.0,'1111122,1111122,1199999999' 
TABS,ioos:station:wmo:42049:1,2013-04-01T17:30:00Z,28.3507,-96.0058,2.0,244.80436335229,55.577690668109,-99999.0,'1111122,1111122,1199999999' 
TABS,ioos:station:wmo:42049:1,2013-04-01T18:00:00Z,28.3507,-96.0058,2.0,247.70759876421,56.124762805735,-99999.0,'1111122,1111122,1199999999' 
TABS,ioos:station:wmo:42049:1,2013-04-01T18:30:00Z,28.3507,-96.0058,2.0,245.07024648397,57.199554194067,-99999.0,'1111122,1111122,1199999999' 
TABS,ioos:station:wmo:42049:1,2013-04-01T19:00:00Z,28.3507,-96.0058,2.0,250.61832466594,59.904878766257,-99999.0,'1111122,1111122,1199999999' 
TABS,ioos:station:wmo:42049:1,2013-04-01T19:30:00Z,28.3507,-96.0058,2.0,251.0809208651,63.997297599196,-99999.0,'1111122,1111122,1199999999' 
TABS,ioos:station:wmo:42049:1,2013-04-01T20:00:00Z,28.3507,-96.0058,2.0,250.92409509718,62.756164637428,-99999.0,'1111122,1111122,1199999999' 
TABS,ioos:station:wmo:42049:1,2013-04-01T20:30:00Z,28.3507,-96.0058,2.0,249.89607865201,66.448668910671,-99999.0,'1111122,1111122,1199999999' 
TABS,ioos:station:wmo:42049:1,2013-04-01T21:00:00Z,28.3507,-96.0058,2.0,249.99299069152,61.437718870414,-99999.0,'1111122,1111122,1199999999' 
TABS,ioos:station:wmo:42049:1,2013-04-01T21:30:00Z,28.3507,-96.0058,2.0,251.66866006869,57.708499374009,-99999.0,'1111122,1111122,1199999999' 
TABS,ioos:station:wmo:42049:1,2013-04-01T22:00:00Z,28.3507,-96.0058,2.0,252.11503935357,58.969708325546,-99999.0,'1111122,1111122,1199999999' 
TABS,ioos:station:wmo:42049:1,2013-04-01T22:30:00Z,28.3507,-96.0058,2.0,252.49139475008,55.941678559014,-99999.0,'1111122,1111122,1199999999' 
TABS,ioos:station:wmo:42049:1,2013-04-01T23:00:00Z,28.3507,-96.0058,2.0,253.76897943765,47.118006112313,-99999.0,'1111122,1111122,1199999999' 
TABS,ioos:station:wmo:42049:1,2013-04-01T23:30:00Z,28.3507,-96.0058,2.0,257.703724006,35.545432899319,-99999.0,'1111122,1111122,1199999999' 
TABS,ioos:station:wmo:42049:1,2013-04-02T00:00:00Z,28.3507,-96.0058,2.0,255.77591587633,33.290618798695,-99999.0,'1111122,1111122,1199999999' 
TABS,ioos:station:wmo:42049:1,2013-04-02T00:30:00Z,28.3507,-96.0058,2.0,255.45430516374,36.551563578047,-99999.0,'1111122,1111122,1199999999' 
TABS,ioos:station:wmo:42049:1,2013-04-02T01:00:00Z,28.3507,-96.0058,2.0,261.46570132108,32.075161729912,-99999.0,'1111122,1111122,1199999999' 
TABS,ioos:station:wmo:42049:1,2013-04-02T01:30:00Z,28.3507,-96.0058,2.0,254.58694750126,29.272799661119,-99999.0,'1111122,1111122,1199999999' 
TABS,ioos:station:wmo:42049:1,2013-04-02T02:00:00Z,28.3507,-96.0058,2.0,248.8071907328,26.223518070617,-99999.0,'1111122,1111122,1199999999' 
TABS,ioos:station:wmo:42049:1,2013-04-02T02:30:00Z,28.3507,-96.0058,2.0,250.15582049587,27.131061534706,-99999.0,'1111122,1111122,1199999999' 
TABS,ioos:station:wmo:42049:1,2013-04-02T03:00:00Z,28.3507,-96.0058,2.0,257.97140229136,22.984657926539,-99999.0,'1111122,1111122,1199999999' 
TABS,ioos:station:wmo:42049:1,2013-04-02T03:30:00Z,28.3507,-96.0058,2.0,246.68754147497,22.463948895953,-99999.0,'1111122,1111122,1199999999' 
TABS,ioos:station:wmo:42049:1,2013-04-02T04:00:00Z,28.3507,-96.0058,2.0,239.91569632338,23.240796027675,-99999.0,'1111122,1111122,1199999999' 
TABS,ioos:station:wmo:42049:1,2013-04-02T04:30:00Z,28.3507,-96.0058,2.0,239.36390806699,21.291897519949,-99999.0,'1111122,1111122,1199999999' 
TABS,ioos:station:wmo:42049:1,2013-04-02T05:00:00Z,28.3507,-96.0058,2.0,235.89939777352,22.063766677519,-99999.0,'1111122,1111122,1199999999' 
TABS,ioos:station:wmo:42049:1,2013-04-02T05:30:00Z,28.3507,-96.0058,2.0,235.86791474531,20.851800881459,-99999.0,'1111122,1111122,1199999999' 
TABS,ioos:station:wmo:42049:1,2013-04-02T06:00:00Z,28.3507,-96.0058,2.0,262.81753469357,18.555605622022,-99999.0,'1111122,1111122,1199999999' 
TABS,ioos:station:wmo:42049:1,2013-04-02T06:30:00Z,28.3507,-96.0058,2.0,275.80042749327,18.404230491928,-99999.0,'1111122,1111122,1199999999' 
TABS,ioos:station:wmo:42049:1,2013-04-02T07:00:00Z,28.3507,-96.0058,2.0,284.75889850943,17.114674989611,-99999.0,'1111122,1111122,1199999999' 
TABS,ioos:station:wmo:42049:1,2013-04-02T07:30:00Z,28.3507,-96.0058,2.0,286.06237180964,17.492904275734,-99999.0,'1111122,1111122,1199999999' 
TABS,ioos:station:wmo:42049:1,2013-04-02T08:00:00Z,28.3507,-96.0058,2.0,281.53412373012,23.055589344018,-99999.0,'1111122,1111122,1199999999' 
TABS,ioos:station:wmo:42049:1,2013-04-02T08:30:00Z,28.3507,-96.0058,2.0,293.60558174489,33.088742798722,-99999.0,'1111122,1111122,1199999999' 
TABS,ioos:station:wmo:42049:1,2013-04-02T09:00:00Z,28.3507,-96.0058,2.0,295.92400626799,31.977773531001,-99999.0,'1111122,1111122,1199999999' 
TABS,ioos:station:wmo:42049:1,2013-04-02T09:30:00Z,28.3507,-96.0058,2.0,299.86330977548,30.004066391074,-99999.0,'1111122,1111122,1199999999' 
TABS,ioos:station:wmo:42049:1,2013-04-02T10:00:00Z,28.3507,-96.0058,2.0,296.57471645693,26.510822318442,-99999.0,'1111122,1111122,1199999999' 
TABS,ioos:station:wmo:42049:1,2013-04-02T10:30:00Z,28.3507,-96.0058,2.0,293.96655625501,28.606362928551,-99999.0,'1111122,1111122,1199999999' 
TABS,ioos:station:wmo:42049:1,2013-04-02T11:00:00Z,28.3507,-96.0058,2.0,293.34627558109,24.4519651562,-99999.0,'1111122,1111122,1199999999' 
TABS,ioos:station:wmo:42049:1,2013-04-02T11:30:00Z,28.3507,-96.0058,2.0,293.11526247938,24.37706504073,-99999.0,'1111122,1111122,1199999999' 
TABS,ioos:station:wmo:42049:1,2013-04-02T12:00:00Z,28.3507,-96.0058,2.0,287.9979625754,21.975306596268,-99999.0,'1111122,1111122,1199999999' 
TABS,ioos:station:wmo:42049:1,2013-04-02T12:30:00Z,28.3507,-96.0058,2.0,301.81803144579,39.224371250538,-99999.0,'1111122,1111122,1199999999' 
TABS,ioos:station:wmo:42049:1,2013-04-02T13:00:00Z,28.3507,-96.0058,2.0,294.19008966132,33.995073172447,-99999.0,'1111122,1111122,1199999999' 
TABS,ioos:station:wmo:42049:1,2013-04-02T13:30:00Z,28.3507,-96.0058,2.0,284.38899980485,59.878329970032,-99999.0,'1111122,1111122,1199999999' 
TABS,ioos:station:wmo:42049:1,2013-04-02T14:00:00Z,28.3507,-96.0058,2.0,263.97442499163,18.1,-99999.0,'1111122,1111122,1199999999' 
TABS,ioos:station:wmo:42049:1,2013-04-02T14:30:00Z,28.3507,-96.0058,2.0,253.1730239904,13.748672663206,-99999.0,'1111122,1111122,1199999999' 
TABS,ioos:station:wmo:42049:1,2013-04-02T15:00:00Z,28.3507,-96.0058,2.0,255.02242928723,19.192008753645,-99999.0,'1111122,1111122,1199999999' 
TABS,ioos:station:wmo:42049:1,2013-04-02T15:30:00Z,28.3507,-96.0058,2.0,248.35139163022,22.281662864338,-99999.0,'1111122,1111122,1199999999' 
TABS,ioos:station:wmo:42049:1,2013-04-02T16:00:00Z,28.3507,-96.0058,2.0,247.27221094025,22.052346813888,-99999.0,'1111122,1111122,1199999999' 
TABS,ioos:station:wmo:42049:1,2013-04-02T16:30:00Z,28.3507,-96.0058,2.0,238.63223391901,25.051421117374,-99999.0,'1111122,1111122,1199999999' 
TABS,ioos:station:wmo:42049:1,2013-04-02T17:00:00Z,28.3507,-96.0058,2.0,227.67079587961,27.769963989894,-99999.0,'1111122,1111122,1199999999' 
TABS,ioos:station:wmo:42049:1,2013-04-02T17:30:00Z,28.3507,-96.0058,2.0,238.18813210047,32.325879725075,-99999.0,'1111122,1111122,1199999999' 
TABS,ioos:station:wmo:42049:1,2013-04-02T18:00:00Z,28.3507,-96.0058,2.0,239.29380087292,30.90264228185,-99999.0,'1111122,1111122,1199999999' 
TABS,ioos:station:wmo:42049:1,2013-04-02T18:30:00Z,28.3507,-96.0058,2.0,234.83014613654,31.14570917478,-99999.0,'1111122,1111122,1199999999' 
TABS,ioos:station:wmo:42049:1,2013-04-02T19:00:00Z,28.3507,-96.0058,2.0,237.59985898661,30.924052127753,-99999.0,'1111122,1111122,1199999999' 
TABS,ioos:station:wmo:42049:1,2013-04-02T19:30:00Z,28.3507,-96.0058,2.0,238.37619060966,29.923343730272,-99999.0,'1111122,1111122,1199999999' 
TABS,ioos:station:wmo:42049:1,2013-04-02T20:00:00Z,28.3507,-96.0058,2.0,238.40421755794,32.027594352371,-99999.0,'1111122,1111122,1199999999' 
TABS,ioos:station:wmo:42049:1,2013-04-02T20:30:00Z,28.3507,-96.0058,2.0,244.74859525957,33.357484917182,-99999.0,'1111122,1111122,1199999999' 
TABS,ioos:station:wmo:42049:1,2013-04-02T21:00:00Z,28.3507,-96.0058,2.0,253.18795308329,34.055579572223,-99999.0,'1111122,1111122,1199999999' 
TABS,ioos:station:wmo:42049:1,2013-04-02T21:30:00Z,28.3507,-96.0058,2.0,256.02376555578,32.419754780072,-99999.0,'1111122,1111122,1199999999' 
TABS,ioos:station:wmo:42049:1,2013-04-02T22:00:00Z,28.3507,-96.0058,2.0,258.08720848097,30.568352916047,-99999.0,'1111122,1111122,1199999999' 
TABS,ioos:station:wmo:42049:1,2013-04-02T22:30:00Z,28.3507,-96.0058,2.0,254.03650198483,30.433608067398,-99999.0,'1111122,1111122,1199999999' 
TABS,ioos:station:wmo:42049:1,2013-04-02T23:00:00Z,28.3507,-96.0058,2.0,250.254514827,30.694771541746,-99999.0,'1111122,1111122,1199999999' 
TABS,ioos:station:wmo:42049:1,2013-04-02T23:30:00Z,28.3507,-96.0058,2.0,252.53219610385,34.846939607374,-99999.0,'1111122,1111122,1199999999' 
TABS,ioos:station:wmo:42049:1,2013-04-03T00:00:00Z,28.3507,-96.0058,2.0,253.61153675553,30.019675214765,-99999.0,'1111122,1111122,1199999999' 
TABS,ioos:station:wmo:42049:1,2013-04-03T00:30:00Z,28.3507,-96.0058,2.0,270.66989966299,34.212338417594,-99999.0,'1111122,1111122,1199999999' 
TABS,ioos:station:wmo:42049:1,2013-04-03T01:00:00Z,28.3507,-96.0058,2.0,269.12940333606,37.514330595121,-99999.0,'1111122,1111122,1199999999' 
TABS,ioos:station:wmo:42049:1,2013-04-03T01:30:00Z,28.3507,-96.0058,2.0,271.10290072924,36.886833694423,-99999.0,'1111122,1111122,1199999999' 
TABS,ioos:station:wmo:42049:1,2013-04-03T02:00:00Z,28.3507,-96.0058,2.0,274.94564355473,33.986534098081,-99999.0,'1111122,1111122,1199999999' 
TABS,ioos:station:wmo:42049:1,2013-04-03T02:30:00Z,28.3507,-96.0058,2.0,267.16033510351,37.746349492368,-99999.0,'1111122,1111122,1199999999' 
TABS,ioos:station:wmo:42049:1,2013-04-03T03:00:00Z,28.3507,-96.0058,2.0,268.09001047237,45.605337406931,-99999.0,'1111122,1111122,1199999999' 
TABS,ioos:station:wmo:42049:1,2013-04-03T03:30:00Z,28.3507,-96.0058,2.0,265.20490387514,46.894128630352,-99999.0,'1111122,1111122,1199999999' 
TABS,ioos:station:wmo:42049:1,2013-04-03T04:00:00Z,28.3507,-96.0058,2.0,260.3386951,47.43268072,-99999.0,'11111222,11111222,99999999' 
TABS,ioos:station:wmo:42049:1,2013-04-03T04:30:00Z,28.3507,-96.0058,2.0,260.2646315,48.0214879,-99999.0,'11111222,11111222,99999999' 
TABS,ioos:station:wmo:42049:1,2013-04-03T05:00:00Z,28.3507,-96.0058,2.0,257.7702211,48.15271124,-99999.0,'11111222,11111222,99999999' 
TABS,ioos:station:wmo:42049:1,2013-04-03T05:30:00Z,28.3507,-96.0058,2.0,261.6301438,46.71753846,-99999.0,'11111222,11111222,99999999' 
TABS,ioos:station:wmo:42049:1,2013-04-03T06:00:00Z,28.3507,-96.0058,2.0,261.3475898,46.26650192,-99999.0,'11111222,11111222,99999999' 
TABS,ioos:station:wmo:42049:1,2013-04-03T06:30:00Z,28.3507,-96.0058,2.0,259.0006334,44.4464543,-99999.0,'11111222,11111222,99999999' 
TABS,ioos:station:wmo:42049:1,2013-04-03T07:00:00Z,28.3507,-96.0058,2.0,256.3083336,40.68608853,-99999.0,'11111222,11111222,99999999' 
TABS,ioos:station:wmo:42049:1,2013-04-03T07:30:00Z,28.3507,-96.0058,2.0,251.9918545,41.56613285,-99999.0,'11111222,11111222,99999999' 
TABS,ioos:station:wmo:42049:1,2013-04-03T08:00:00Z,28.3507,-96.0058,2.0,235.2810537,44.80758083,-99999.0,'11111222,11111222,99999999' 
TABS,ioos:station:wmo:42049:1,2013-04-03T08:30:00Z,28.3507,-96.0058,2.0,237.279739,49.4697079,-99999.0,'11111222,11111222,99999999' 
TABS,ioos:station:wmo:42049:1,2013-04-03T09:00:00Z,28.3507,-96.0058,2.0,243.3469597,52.63262961,-99999.0,'11111222,11111222,99999999' 
TABS,ioos:station:wmo:42049:1,2013-04-03T09:30:00Z,28.3507,-96.0058,2.0,241.9821202,50.28296431,-99999.0,'11111222,11111222,99999999' 
TABS,ioos:station:wmo:42049:1,2013-04-03T10:00:00Z,28.3507,-96.0058,2.0,243.0003874,50.75125614,-99999.0,'11111222,11111222,99999999' 
TABS,ioos:station:wmo:42049:1,2013-04-03T10:30:00Z,28.3507,-96.0058,2.0,238.1977423,55.21987776,-99999.0,'11111222,11111222,99999999' 
TABS,ioos:station:wmo:42049:1,2013-04-03T11:00:00Z,28.3507,-96.0058,2.0,246.9643631,55.27760668,-99999.0,'11111222,11111222,99999999' 
TABS,ioos:station:wmo:42049:1,2013-04-03T11:30:00Z,28.3507,-96.0058,2.0,251.2067684,54.16771086,-99999.0,'11111222,11111222,99999999' 
TABS,ioos:station:wmo:42049:1,2013-04-03T12:00:00Z,28.3507,-96.0058,2.0,258.2739946,63.52564915,-99999.0,'11111222,11111222,99999999' 
TABS,ioos:station:wmo:42049:1,2013-04-03T12:30:00Z,28.3507,-96.0058,2.0,262.6578412,72.46409111,-99999.0,'11111222,11111222,99999999' 
TABS,ioos:station:wmo:42049:1,2013-04-03T13:00:00Z,28.3507,-96.0058,2.0,259.1629813,74.78359513,-99999.0,'11111222,11111222,99999999' 
TABS,ioos:station:wmo:42049:1,2013-04-03T13:30:00Z,28.3507,-96.0058,2.0,259.0104291,72.86613068,-99999.0,'11111222,11111222,99999999' 
TABS,ioos:station:wmo:42049:1,2013-04-03T14:00:00Z,28.3507,-96.0058,2.0,254.1947799,71.66946351,-99999.0,'11111222,11111222,99999999' 
TABS,ioos:station:wmo:42049:1,2013-04-03T14:30:00Z,28.3507,-96.0058,2.0,252.9451405,75.08161426,-99999.0,'11111222,11111222,99999999' 
TABS,ioos:station:wmo:42049:1,2013-04-03T15:00:00Z,28.3507,-96.0058,2.0,247.5980038,72.50129516,-99999.0,'11111222,11111222,99999999' 
TABS,ioos:station:wmo:42049:1,2013-04-03T15:30:00Z,28.3507,-96.0058,2.0,247.3623252,68.22615701,-99999.0,'11111222,11111222,99999999' 
TABS,ioos:station:wmo:42049:1,2013-04-03T16:00:00Z,28.3507,-96.0058,2.0,242.822718,69.09844065,-99999.0,'11111222,11111222,99999999' 
TABS,ioos:station:wmo:42049:1,2013-04-03T16:30:00Z,28.3507,-96.0058,2.0,237.7277156,68.80944703,-99999.0,'11111222,11111222,99999999' 
TABS,ioos:station:wmo:42049:1,2013-04-03T17:00:00Z,28.3507,-96.0058,2.0,240.0081877,68.01755729,-99999.0,'11111222,11111222,99999999' 
TABS,ioos:station:wmo:42049:1,2013-04-03T17:30:00Z,28.3507,-96.0058,2.0,241.2211397,70.74831235,-99999.0,'11111222,11111222,99999999' 
TABS,ioos:station:wmo:42049:1,2013-04-03T18:00:00Z,28.3507,-96.0058,2.0,293.1768088,64.53842964,-99999.0,'11111222,11111222,99999999' 
TABS,ioos:station:wmo:42049:1,2013-04-03T18:30:00Z,28.3507,-96.0058,2.0,312.0290106,56.47476073,-99999.0,'11111222,11111222,99999999' 
TABS,ioos:station:wmo:42049:1,2013-04-03T19:00:00Z,28.3507,-96.0058,2.0,238.7424215,75.33517173,-99999.0,'11111222,11111222,99999999' 
TABS,ioos:station:wmo:42049:1,2013-04-03T19:30:00Z,28.3507,-96.0058,2.0,232.5914434,74.71729786,-99999.0,'11111222,11111222,99999999' 
TABS,ioos:station:wmo:42049:1,2013-04-03T20:00:00Z,28.3507,-96.0058,2.0,232.9814777,61.82020705,-99999.0,'11111222,11111222,99999999' 
TABS,ioos:station:wmo:42049:1,2013-04-03T20:30:00Z,28.3507,-96.0058,2.0,232.6554497,49.04368053,-99999.0,'11111222,11111222,99999999' 
TABS,ioos:station:wmo:42049:1,2013-04-03T21:00:00Z,28.3507,-96.0058,2.0,235.3988196,38.0378246,-99999.0,'11111222,11111222,99999999' 
TABS,ioos:station:wmo:42049:1,2013-04-03T21:30:00Z,28.3507,-96.0058,2.0,225.3400505,28.56761803,-99999.0,'11111222,11111222,99999999' 
TABS,ioos:station:wmo:42049:1,2013-04-03T22:00:00Z,28.3507,-96.0058,2.0,263.0355218,28.70175082,-99999.0,'11111222,11111222,99999999' 
TABS,ioos:station:wmo:42049:1,2013-04-03T22:30:00Z,28.3507,-96.0058,2.0,254.8828075,29.06578745,-99999.0,'11111222,11111222,99999999' 
TABS,ioos:station:wmo:42049:1,2013-04-03T23:00:00Z,28.3507,-96.0058,2.0,250.4548366,36.40780823,-99999.0,'11111222,11111222,99999999' 
TABS,ioos:station:wmo:42049:1,2013-04-03T23:30:00Z,28.3507,-96.0058,2.0,258.5627356,33.63792205,-99999.0,'11111222,11111222,99999999' 
TABS,ioos:station:wmo:42049:1,2013-04-04T00:00:00Z,28.3507,-96.0058,2.0,260.752443,50.34425687,-99999.0,'11111222,11111222,99999999' 
TABS,ioos:station:wmo:42049:1,2013-04-04T00:30:00Z,28.3507,-96.0058,2.0,256.5750507,60.43119476,-99999.0,'11111222,11111222,99999999' 
TABS,ioos:station:wmo:42049:1,2013-04-04T01:00:00Z,28.3507,-96.0058,2.0,248.3634718,59.23334534,-99999.0,'11111222,11111222,99999999' 
TABS,ioos:station:wmo:42049:1,2013-04-04T01:30:00Z,28.3507,-96.0058,2.0,248.1303269,79.92147271,-99999.0,'11111222,11111222,99999999' 
TABS,ioos:station:wmo:42049:1,2013-04-04T02:00:00Z,28.3507,-96.0058,2.0,251.8819065,78.81781651,-99999.0,'11111222,11111222,99999999' 
TABS,ioos:station:wmo:42049:1,2013-04-04T02:30:00Z,28.3507,-96.0058,2.0,248.0515536,89.22690233,-99999.0,'11111222,11111222,99999999' 
TABS,ioos:station:wmo:42049:1,2013-04-04T03:00:00Z,28.3507,-96.0058,2.0,244.8703393,84.06677168,-99999.0,'11111222,11111222,99999999' 
TABS,ioos:station:wmo:42049:1,2013-04-04T03:30:00Z,28.3507,-96.0058,2.0,246.2204142,85.38901861,-99999.0,'11111222,11111222,99999999' 
TABS,ioos:station:wmo:42049:1,2013-04-04T04:00:00Z,28.3507,-96.0058,2.0,244.3265269,80.441112,-99999.0,'11111222,11111222,99999999' 
TABS,ioos:station:wmo:42049:1,2013-04-04T04:30:00Z,28.3507,-96.0058,2.0,242.9314579,81.48545883,-99999.0,'11111222,11111222,99999999' 
TABS,ioos:station:wmo:42049:1,2013-04-04T05:00:00Z,28.3507,-96.0058,2.0,242.9618746,82.9341118,-99999.0,'11111222,11111222,99999999' 
TABS,ioos:station:wmo:42049:1,2013-04-04T05:30:00Z,28.3507,-96.0058,2.0,241.0744933,82.97036399,-99999.0,'11111222,11111222,99999999' 
TABS,ioos:station:wmo:42049:1,2013-04-04T06:00:00Z,28.3507,-96.0058,2.0,240.5796361,84.22093861,-99999.0,'11111222,11111222,99999999' 
TABS,ioos:station:wmo:42049:1,2013-04-04T06:30:00Z,28.3507,-96.0058,2.0,240.4431247,79.60964389,-99999.0,'11111222,11111222,99999999' 
TABS,ioos:station:wmo:42049:1,2013-04-04T07:00:00Z,28.3507,-96.0058,2.0,235.8622102,79.92086711,-99999.0,'11111222,11111222,99999999' 
TABS,ioos:station:wmo:42049:1,2013-04-04T07:30:00Z,28.3507,-96.0058,2.0,236.439283,83.31895643,-99999.0,'11111222,11111222,99999999' 
TABS,ioos:station:wmo:42049:1,2013-04-04T08:00:00Z,28.3507,-96.0058,2.0,235.986278,85.52226435,-99999.0,'11111222,11111222,99999999' 
TABS,ioos:station:wmo:42049:1,2013-04-04T08:30:00Z,28.3507,-96.0058,2.0,235.6110172,80.98392742,-99999.0,'11111222,11111222,99999999' 
TABS,ioos:station:wmo:42049:1,2013-04-04T09:00:00Z,28.3507,-96.0058,2.0,233.7461749,88.30511027,-99999.0,'11111222,11111222,99999999' 
TABS,ioos:station:wmo:42049:1,2013-04-04T09:30:00Z,28.3507,-96.0058,2.0,231.507649,88.52747653,-99999.0,'11111222,11111222,99999999' 
TABS,ioos:station:wmo:42049:1,2013-04-04T10:00:00Z,28.3507,-96.0058,2.0,231.9059994,89.61844118,-99999.0,'11111222,11111222,99999999' 
TABS,ioos:station:wmo:42049:1,2013-04-04T10:30:00Z,28.3507,-96.0058,2.0,232.1538867,89.48097898,-99999.0,'11111222,11111222,99999999' 
TABS,ioos:station:wmo:42049:1,2013-04-04T11:00:00Z,28.3507,-96.0058,2.0,232.2486311,86.3562117,-99999.0,'11111222,11111222,99999999' 
TABS,ioos:station:wmo:42049:1,2013-04-04T11:30:00Z,28.3507,-96.0058,2.0,228.7027229,88.35361057,-99999.0,'11111222,11111222,99999999' 
TABS,ioos:station:wmo:42049:1,2013-04-04T12:00:00Z,28.3507,-96.0058,2.0,232.3042119,84.81280387,-99999.0,'11111222,11111222,99999999' 
TABS,ioos:station:wmo:42049:1,2013-04-04T12:30:00Z,28.3507,-96.0058,2.0,231.2807925,86.3469571,-99999.0,'11111222,11111222,99999999' 
TABS,ioos:station:wmo:42049:1,2013-04-04T13:00:00Z,28.3507,-96.0058,2.0,233.7514911,76.12248157,-99999.0,'11111222,11111222,99999999' 
TABS,ioos:station:wmo:42049:1,2013-04-04T13:30:00Z,28.3507,-96.0058,2.0,228.3336213,83.41006294,-99999.0,'11111222,11111222,99999999' 